Precipitable_Water
0.70 0.70 0.68 0.68 0.68 0.68 0.68 0.68 0.68 0.68 0.68 0.68 0.66 0.66 0.66 0.66 0.64 0.64 0.64 0.64 0.62 0.62 0.62 0.62 0.64 0.64 0.64 0.66 0.66 0.66 0.66 0.68 0.70 0.72 0.74 0.74 0.74 0.74 0.74 0.76 0.76 0.76 0.76 0.78 0.78 0.80 0.82 0.84 0.86 0.86 0.86 0.88 0.88 0.91 0.93 0.97 0.99 0.99 1.01 1.03 1.05 1.05 1.09 1.11 1.15 1.15 1.15 1.11 1.11
0.70 0.70 0.70 0.68 0.68 0.68 0.68 0.68 0.68 0.68 0.68 0.68 0.68 0.68 0.68 0.66 0.64 0.64 0.64 0.64 0.64 0.64 0.64 0.64 0.66 0.66 0.66 0.66 0.68 0.68 0.70 0.74 0.74 0.76 0.76 0.78 0.78 0.80 0.80 0.80 0.80 0.80 0.80 0.80 0.80 0.82 0.82 0.84 0.86 0.86 0.86 0.88 0.88 0.89 0.93 0.99 1.01 1.01 1.03 1.03 1.03 1.05 1.09 1.13 1.15 1.15 1.15 1.15 1.17
0.72 0.72 0.72 0.70 0.70 0.68 0.68 0.68 0.68 0.68 0.68 0.68 0.68 0.68 0.68 0.66 0.64 0.64 0.64 0.64 0.64 0.66 0.66 0.66 0.66 0.68 0.68 0.68 0.70 0.72 0.76 0.76 0.78 0.78 0.78 0.80 0.82 0.82 0.82 0.84 0.84 0.84 0.84 0.84 0.84 0.84 0.86 0.86 0.86 0.88 0.88 0.89 0.91 0.91 0.95 1.01 1.03 1.03 1.01 1.01 1.01 1.07 1.13 1.17 1.19 1.19 1.19 1.17 1.21
0.74 0.72 0.72 0.70 0.70 0.68 0.68 0.68 0.68 0.68 0.68 0.68 0.68 0.68 0.68 0.66 0.66 0.66 0.66 0.66 0.66 0.66 0.68 0.68 0.68 0.70 0.70 0.72 0.72 0.74 0.76 0.78 0.78 0.78 0.80 0.80 0.82 0.84 0.84 0.86 0.86 0.86 0.86 0.88 0.88 0.88 0.88 0.89 0.89 0.89 0.91 0.91 0.93 0.93 0.93 0.95 0.99 0.99 0.99 1.03 1.07 1.11 1.15 1.19 1.19 1.17 1.17 1.17 1.17
0.74 0.74 0.72 0.72 0.70 0.70 0.70 0.70 0.68 0.68 0.68 0.68 0.68 0.68 0.68 0.66 0.66 0.66 0.66 0.66 0.66 0.66 0.68 0.68 0.70 0.70 0.72 0.72 0.72 0.74 0.76 0.76 0.78 0.78 0.80 0.80 0.82 0.84 0.86 0.86 0.88 0.88 0.88 0.89 0.89 0.89 0.89 0.91 0.93 0.93 0.93 0.93 0.93 0.93 0.93 0.95 0.97 0.97 1.01 1.11 1.13 1.13 1.11 1.09 1.11 1.13 1.17 1.17 1.13
0.74 0.74 0.74 0.72 0.72 0.72 0.70 0.70 0.70 0.68 0.68 0.68 0.68 0.66 0.66 0.66 0.66 0.66 0.66 0.66 0.66 0.66 0.68 0.70 0.70 0.70 0.72 0.72 0.72 0.74 0.74 0.76 0.76 0.78 0.78 0.78 0.82 0.84 0.84 0.86 0.88 0.88 0.89 0.89 0.89 0.91 0.93 0.95 0.93 0.93 0.93 0.93 0.93 0.93 0.95 0.97 0.99 1.03 1.07 1.07 1.03 1.01 1.01 1.01 1.07 1.11 1.11 1.11 1.07
0.74 0.74 0.74 0.74 0.72 0.72 0.72 0.70 0.70 0.70 0.68 0.68 0.68 0.66 0.66 0.66 0.66 0.66 0.66 0.66 0.68 0.68 0.70 0.70 0.70 0.72 0.72 0.72 0.72 0.72 0.74 0.76 0.76 0.78 0.78 0.78 0.80 0.82 0.84 0.86 0.88 0.89 0.89 0.89 0.89 0.91 0.95 0.95 0.95 0.93 0.93 0.93 0.95 0.97 1.01 1.03 1.05 1.03 0.99 0.95 0.97 0.97 0.97 0.97 0.99 1.03 1.07 1.07 1.03
0.74 0.74 0.74 0.74 0.72 0.72 0.72 0.72 0.70 0.70 0.68 0.68 0.68 0.66 0.66 0.66 0.66 0.66 0.68 0.68 0.68 0.70 0.70 0.70 0.72 0.72 0.72 0.72 0.74 0.74 0.74 0.76 0.76 0.78 0.78 0.80 0.80 0.82 0.84 0.86 0.88 0.89 0.89 0.91 0.91 0.93 0.93 0.95 0.95 0.95 0.95 0.95 0.99 1.01 1.05 1.07 1.05 0.99 0.93 0.93 0.93 0.95 0.95 0.95 0.97 0.97 0.99 1.01 0.99
0.74 0.74 0.74 0.74 0.74 0.72 0.72 0.72 0.70 0.70 0.68 0.68 0.68 0.68 0.68 0.68 0.68 0.68 0.68 0.68 0.70 0.72 0.72 0.72 0.74 0.74 0.74 0.74 0.74 0.74 0.76 0.76 0.78 0.78 0.78 0.80 0.80 0.82 0.84 0.86 0.88 0.89 0.91 0.91 0.93 0.93 0.93 0.93 0.93 0.95 0.95 0.97 0.99 0.99 0.99 0.99 0.97 0.93 0.91 0.91 0.93 0.95 0.97 0.99 0.99 0.99 0.97 0.97 0.95
0.76 0.76 0.74 0.74 0.74 0.74 0.72 0.72 0.72 0.70 0.70 0.68 0.68 0.68 0.70 0.70 0.70 0.70 0.72 0.72 0.72 0.74 0.74 0.74 0.74 0.74 0.74 0.74 0.76 0.76 0.76 0.78 0.78 0.78 0.80 0.80 0.82 0.82 0.84 0.86 0.88 0.89 0.91 0.91 0.93 0.91 0.91 0.89 0.91 0.93 0.93 0.95 0.95 0.95 0.93 0.93 0.91 0.89 0.89 0.89 0.91 0.95 0.95 0.97 0.97 0.97 0.95 0.89 0.89
0.76 0.76 0.76 0.74 0.74 0.74 0.74 0.72 0.72 0.72 0.70 0.70 0.70 0.70 0.72 0.72 0.72 0.74 0.74 0.74 0.74 0.74 0.74 0.76 0.76 0.76 0.76 0.76 0.76 0.76 0.76 0.78 0.78 0.80 0.80 0.80 0.80 0.82 0.82 0.84 0.86 0.88 0.89 0.89 0.89 0.89 0.89 0.88 0.88 0.89 0.89 0.91 0.91 0.91 0.91 0.91 0.89 0.88 0.86 0.88 0.89 0.91 0.91 0.91 0.91 0.89 0.88 0.82 0.80
0.76 0.76 0.76 0.76 0.76 0.76 0.74 0.72 0.72 0.72 0.72 0.72 0.72 0.72 0.72 0.74 0.74 0.76 0.76 0.76 0.74 0.74 0.76 0.76 0.76 0.76 0.76 0.76 0.76 0.76 0.78 0.78 0.78 0.78 0.78 0.78 0.80 0.80 0.82 0.82 0.86 0.86 0.86 0.86 0.88 0.88 0.88 0.86 0.86 0.86 0.88 0.88 0.89 0.89 0.89 0.89 0.86 0.86 0.84 0.84 0.86 0.88 0.88 0.86 0.86 0.84 0.82 0.80 0.80
0.74 0.76 0.76 0.76 0.76 0.76 0.76 0.74 0.74 0.72 0.72 0.72 0.72 0.74 0.74 0.74 0.76 0.76 0.76 0.76 0.76 0.76 0.76 0.76 0.76 0.76 0.76 0.76 0.76 0.78 0.78 0.78 0.78 0.78 0.78 0.78 0.78 0.78 0.78 0.80 0.82 0.82 0.82 0.82 0.84 0.84 0.84 0.84 0.84 0.84 0.84 0.86 0.86 0.88 0.86 0.84 0.82 0.82 0.82 0.82 0.82 0.82 0.82 0.82 0.80 0.78 0.78 0.76 0.76
0.74 0.74 0.76 0.76 0.76 0.76 0.76 0.76 0.74 0.74 0.74 0.74 0.74 0.74 0.74 0.76 0.76 0.76 0.78 0.76 0.76 0.76 0.78 0.78 0.78 0.78 0.78 0.78 0.78 0.78 0.78 0.76 0.76 0.76 0.76 0.76 0.76 0.76 0.76 0.76 0.78 0.78 0.78 0.78 0.80 0.80 0.80 0.82 0.82 0.82 0.82 0.82 0.82 0.84 0.82 0.80 0.80 0.78 0.78 0.78 0.78 0.78 0.76 0.76 0.76 0.74 0.70 0.70 0.68
0.72 0.74 0.74 0.76 0.76 0.76 0.76 0.76 0.76 0.76 0.76 0.74 0.76 0.76 0.76 0.76 0.76 0.78 0.78 0.78 0.78 0.78 0.78 0.78 0.78 0.78 0.78 0.78 0.78 0.78 0.76 0.76 0.76 0.76 0.74 0.74 0.74 0.74 0.74 0.74 0.74 0.74 0.76 0.76 0.76 0.78 0.78 0.78 0.78 0.78 0.78 0.78 0.78 0.78 0.76 0.76 0.76 0.76 0.74 0.74 0.72 0.72 0.72 0.70 0.70 0.68 0.66 0.66 0.64
0.70 0.72 0.74 0.74 0.74 0.76 0.76 0.76 0.78 0.78 0.78 0.76 0.78 0.78 0.78 0.76 0.78 0.78 0.78 0.78 0.78 0.78 0.78 0.78 0.78 0.78 0.78 0.78 0.78 0.76 0.76 0.76 0.74 0.74 0.74 0.72 0.72 0.72 0.72 0.72 0.72 0.72 0.74 0.74 0.74 0.74 0.76 0.76 0.76 0.76 0.74 0.74 0.74 0.72 0.70 0.72 0.72 0.70 0.70 0.70 0.68 0.68 0.66 0.66 0.66 0.66 0.66 0.64 0.64
0.70 0.72 0.74 0.74 0.74 0.74 0.76 0.76 0.78 0.78 0.78 0.78 0.80 0.80 0.78 0.78 0.78 0.78 0.78 0.78 0.78 0.78 0.78 0.78 0.78 0.78 0.78 0.78 0.76 0.76 0.74 0.74 0.74 0.72 0.72 0.70 0.72 0.72 0.70 0.70 0.70 0.72 0.72 0.72 0.72 0.72 0.72 0.72 0.72 0.72 0.72 0.72 0.70 0.70 0.68 0.68 0.68 0.68 0.68 0.68 0.66 0.66 0.66 0.66 0.66 0.66 0.66 0.66 0.64
0.70 0.72 0.72 0.74 0.74 0.74 0.74 0.76 0.76 0.78 0.80 0.80 0.80 0.80 0.80 0.80 0.80 0.80 0.78 0.78 0.78 0.76 0.76 0.76 0.76 0.76 0.76 0.76 0.76 0.74 0.74 0.72 0.72 0.72 0.70 0.70 0.70 0.70 0.70 0.70 0.70 0.70 0.70 0.70 0.70 0.70 0.70 0.70 0.72 0.72 0.72 0.70 0.70 0.68 0.68 0.66 0.66 0.66 0.66 0.66 0.66 0.66 0.66 0.66 0.66 0.66 0.66 0.64 0.64
0.70 0.72 0.72 0.74 0.74 0.74 0.74 0.76 0.76 0.78 0.80 0.80 0.82 0.82 0.82 0.82 0.82 0.80 0.80 0.78 0.78 0.78 0.76 0.76 0.76 0.76 0.76 0.74 0.74 0.74 0.74 0.72 0.72 0.72 0.70 0.70 0.70 0.70 0.70 0.70 0.70 0.70 0.70 0.70 0.70 0.70 0.70 0.70 0.70 0.70 0.70 0.70 0.68 0.68 0.66 0.66 0.66 0.66 0.66 0.66 0.66 0.66 0.66 0.66 0.66 0.66 0.66 0.64 0.64
0.70 0.72 0.72 0.74 0.74 0.74 0.76 0.76 0.76 0.78 0.80 0.80 0.82 0.82 0.82 0.82 0.82 0.82 0.80 0.80 0.80 0.78 0.78 0.76 0.76 0.76 0.76 0.74 0.74 0.74 0.74 0.72 0.72 0.72 0.72 0.72 0.70 0.70 0.70 0.70 0.70 0.70 0.70 0.70 0.70 0.70 0.70 0.70 0.70 0.70 0.68 0.68 0.66 0.66 0.66 0.66 0.66 0.66 0.66 0.66 0.66 0.66 0.66 0.66 0.66 0.66 0.64 0.64 0.64
0.70 0.72 0.72 0.74 0.74 0.74 0.76 0.76 0.76 0.78 0.78 0.80 0.80 0.80 0.82 0.82 0.82 0.82 0.82 0.82 0.80 0.80 0.80 0.78 0.78 0.76 0.76 0.76 0.74 0.74 0.74 0.74 0.72 0.72 0.72 0.72 0.70 0.70 0.70 0.70 0.70 0.70 0.70 0.70 0.70 0.70 0.70 0.68 0.68 0.68 0.68 0.66 0.66 0.66 0.66 0.66 0.66 0.66 0.66 0.66 0.66 0.66 0.66 0.66 0.66 0.64 0.64 0.64 0.64
0.70 0.72 0.72 0.74 0.74 0.74 0.76 0.76 0.76 0.76 0.78 0.78 0.78 0.80 0.80 0.80 0.82 0.82 0.82 0.82 0.82 0.82 0.80 0.80 0.78 0.78 0.78 0.76 0.74 0.74 0.74 0.74 0.72 0.72 0.72 0.72 0.72 0.72 0.72 0.70 0.70 0.70 0.70 0.68 0.68 0.68 0.68 0.68 0.68 0.66 0.66 0.66 0.66 0.64 0.64 0.64 0.64 0.64 0.64 0.66 0.66 0.66 0.66 0.66 0.66 0.66 0.64 0.64 0.64
0.72 0.72 0.74 0.74 0.74 0.74 0.74 0.76 0.76 0.76 0.76 0.76 0.76 0.78 0.78 0.78 0.80 0.80 0.82 0.82 0.82 0.82 0.80 0.80 0.80 0.78 0.78 0.78 0.76 0.74 0.74 0.74 0.72 0.72 0.72 0.72 0.72 0.72 0.72 0.70 0.70 0.70 0.68 0.68 0.68 0.68 0.66 0.66 0.66 0.66 0.66 0.66 0.66 0.66 0.64 0.64 0.64 0.64 0.64 0.64 0.66 0.66 0.66 0.66 0.66 0.66 0.66 0.66 0.66
0.72 0.72 0.74 0.74 0.74 0.74 0.74 0.74 0.74 0.74 0.74 0.74 0.76 0.76 0.76 0.78 0.78 0.78 0.80 0.80 0.80 0.80 0.80 0.80 0.80 0.80 0.80 0.78 0.76 0.74 0.74 0.72 0.72 0.72 0.72 0.72 0.72 0.72 0.72 0.70 0.70 0.68 0.68 0.68 0.68 0.66 0.66 0.66 0.66 0.66 0.66 0.66 0.66 0.66 0.66 0.66 0.66 0.66 0.66 0.64 0.64 0.66 0.66 0.66 0.66 0.66 0.66 0.66 0.66
0.72 0.72 0.72 0.72 0.72 0.72 0.72 0.72 0.72 0.72 0.72 0.72 0.74 0.74 0.74 0.76 0.76 0.78 0.78 0.78 0.78 0.78 0.80 0.80 0.80 0.80 0.78 0.78 0.78 0.76 0.74 0.72 0.72 0.72 0.72 0.72 0.72 0.72 0.72 0.70 0.68 0.68 0.68 0.68 0.68 0.68 0.68 0.68 0.66 0.68 0.68 0.68 0.68 0.68 0.66 0.66 0.66 0.66 0.66 0.66 0.66 0.66 0.66 0.66 0.66 0.66 0.64 0.64 0.64
0.72 0.72 0.72 0.72 0.72 0.72 0.70 0.70 0.70 0.70 0.70 0.72 0.72 0.72 0.74 0.74 0.76 0.76 0.76 0.76 0.78 0.78 0.78 0.78 0.78 0.78 0.78 0.78 0.76 0.74 0.74 0.72 0.72 0.72 0.72 0.72 0.70 0.70 0.70 0.70 0.68 0.68 0.68 0.70 0.70 0.70 0.70 0.70 0.70 0.70 0.70 0.70 0.68 0.68 0.68 0.68 0.68 0.68 0.66 0.66 0.66 0.66 0.66 0.64 0.64 0.62 0.62 0.62 0.62
0.72 0.72 0.70 0.70 0.70 0.70 0.70 0.70 0.70 0.70 0.70 0.70 0.70 0.70 0.72 0.72 0.74 0.74 0.74 0.76 0.76 0.76 0.78 0.78 0.78 0.78 0.78 0.76 0.76 0.74 0.72 0.72 0.72 0.72 0.72 0.70 0.70 0.70 0.68 0.68 0.68 0.70 0.70 0.70 0.70 0.72 0.72 0.72 0.72 0.72 0.72 0.72 0.70 0.70 0.68 0.68 0.68 0.68 0.68 0.68 0.66 0.66 0.64 0.64 0.62 0.60 0.60 0.60 0.60
0.70 0.70 0.70 0.70 0.70 0.70 0.68 0.70 0.68 0.68 0.68 0.68 0.70 0.70 0.70 0.72 0.72 0.74 0.74 0.74 0.76 0.76 0.76 0.76 0.76 0.76 0.76 0.74 0.74 0.72 0.72 0.72 0.72 0.72 0.72 0.70 0.70 0.70 0.70 0.70 0.70 0.70 0.70 0.72 0.72 0.72 0.72 0.72 0.72 0.72 0.72 0.72 0.72 0.70 0.70 0.68 0.68 0.68 0.68 0.68 0.66 0.64 0.64 0.62 0.60 0.60 0.60 0.60 0.60
0.70 0.70 0.70 0.70 0.68 0.68 0.68 0.70 0.68 0.68 0.68 0.68 0.68 0.70 0.70 0.70 0.72 0.72 0.72 0.74 0.74 0.74 0.74 0.76 0.74 0.74 0.74 0.72 0.72 0.72 0.72 0.72 0.72 0.70 0.70 0.70 0.70 0.70 0.70 0.72 0.72 0.72 0.72 0.72 0.72 0.72 0.74 0.74 0.74 0.74 0.72 0.72 0.72 0.72 0.70 0.68 0.68 0.68 0.66 0.66 0.64 0.62 0.62 0.60 0.60 0.60 0.60 0.60 0.58
0.70 0.70 0.70 0.68 0.68 0.68 0.68 0.68 0.68 0.68 0.68 0.68 0.68 0.70 0.70 0.70 0.70 0.72 0.72 0.72 0.74 0.74 0.74 0.74 0.74 0.72 0.72 0.72 0.72 0.72 0.70 0.70 0.70 0.70 0.70 0.70 0.70 0.70 0.72 0.72 0.72 0.72 0.74 0.74 0.74 0.74 0.74 0.74 0.74 0.72 0.72 0.72 0.72 0.70 0.70 0.70 0.68 0.66 0.64 0.62 0.62 0.62 0.62 0.60 0.60 0.58 0.56 0.54 0.52
0.70 0.68 0.68 0.66 0.68 0.68 0.68 0.68 0.68 0.70 0.70 0.70 0.70 0.70 0.70 0.70 0.70 0.72 0.72 0.72 0.74 0.74 0.74 0.74 0.72 0.72 0.72 0.72 0.72 0.70 0.70 0.70 0.70 0.70 0.70 0.70 0.70 0.72 0.72 0.72 0.74 0.74 0.74 0.74 0.74 0.74 0.74 0.74 0.72 0.72 0.72 0.72 0.70 0.70 0.68 0.68 0.66 0.64 0.62 0.62 0.60 0.60 0.58 0.54 0.52 0.50 0.46 0.44 0.42
0.68 0.68 0.68 0.66 0.66 0.66 0.66 0.68 0.68 0.70 0.70 0.70 0.70 0.70 0.70 0.70 0.72 0.72 0.72 0.74 0.74 0.74 0.74 0.72 0.72 0.72 0.70 0.70 0.70 0.70 0.70 0.70 0.70 0.70 0.70 0.72 0.72 0.72 0.72 0.74 0.74 0.74 0.74 0.74 0.74 0.74 0.74 0.72 0.72 0.72 0.70 0.70 0.68 0.68 0.66 0.66 0.64 0.64 0.62 0.60 0.54 0.50 0.48 0.44 0.42 0.40 0.38 0.36 0.32
0.70 0.68 0.66 0.66 0.66 0.66 0.66 0.68 0.68 0.70 0.70 0.70 0.70 0.70 0.70 0.70 0.72 0.72 0.72 0.74 0.74 0.74 0.72 0.72 0.70 0.70 0.70 0.70 0.68 0.68 0.68 0.68 0.70 0.70 0.72 0.72 0.72 0.72 0.72 0.74 0.74 0.74 0.74 0.74 0.74 0.74 0.72 0.72 0.70 0.70 0.68 0.68 0.66 0.66 0.66 0.64 0.64 0.58 0.52 0.48 0.46 0.42 0.38 0.36 0.34 0.34 0.32 0.30 0.26
0.70 0.68 0.66 0.66 0.66 0.66 0.66 0.68 0.68 0.68 0.70 0.70 0.70 0.70 0.72 0.72 0.72 0.72 0.72 0.72 0.74 0.72 0.72 0.72 0.70 0.70 0.70 0.68 0.68 0.68 0.68 0.68 0.70 0.70 0.70 0.72 0.72 0.72 0.72 0.74 0.74 0.74 0.74 0.74 0.74 0.72 0.72 0.72 0.70 0.68 0.68 0.66 0.66 0.64 0.62 0.60 0.58 0.48 0.38 0.36 0.34 0.34 0.32 0.30 0.28 0.28 0.28 0.26 0.23
0.70 0.68 0.68 0.66 0.66 0.66 0.66 0.68 0.68 0.68 0.68 0.70 0.70 0.70 0.72 0.72 0.72 0.72 0.72 0.72 0.74 0.72 0.72 0.72 0.70 0.70 0.68 0.68 0.68 0.68 0.68 0.68 0.70 0.70 0.70 0.72 0.72 0.72 0.72 0.72 0.74 0.74 0.74 0.72 0.72 0.72 0.70 0.70 0.70 0.68 0.66 0.62 0.60 0.56 0.52 0.48 0.44 0.36 0.28 0.28 0.26 0.26 0.26 0.25 0.25 0.25 0.23 0.23 0.21
0.70 0.68 0.68 0.66 0.66 0.66 0.68 0.68 0.68 0.68 0.68 0.70 0.70 0.70 0.72 0.72 0.72 0.72 0.74 0.74 0.74 0.72 0.70 0.70 0.68 0.68 0.68 0.66 0.68 0.68 0.68 0.68 0.68 0.70 0.70 0.72 0.72 0.72 0.72 0.72 0.72 0.72 0.72 0.72 0.72 0.70 0.70 0.68 0.66 0.64 0.58 0.52 0.48 0.44 0.38 0.34 0.26 0.23 0.23 0.23 0.21 0.21 0.21 0.21 0.21 0.21 0.21 0.21 0.21
0.70 0.70 0.68 0.68 0.68 0.68 0.68 0.68 0.68 0.68 0.68 0.70 0.70 0.70 0.72 0.72 0.72 0.72 0.74 0.74 0.72 0.72 0.70 0.68 0.68 0.66 0.66 0.66 0.66 0.68 0.68 0.68 0.70 0.70 0.70 0.72 0.72 0.72 0.70 0.72 0.72 0.70 0.70 0.70 0.68 0.66 0.62 0.60 0.56 0.50 0.46 0.42 0.38 0.32 0.28 0.25 0.21 0.19 0.19 0.19 0.19 0.19 0.19 0.19 0.19 0.19 0.21 0.21 0.21
0.72 0.70 0.70 0.68 0.68 0.68 0.68 0.68 0.68 0.68 0.68 0.70 0.70 0.72 0.72 0.72 0.72 0.72 0.72 0.72 0.72 0.70 0.68 0.68 0.66 0.66 0.66 0.66 0.66 0.68 0.68 0.70 0.70 0.70 0.70 0.72 0.72 0.70 0.70 0.70 0.68 0.66 0.64 0.62 0.58 0.54 0.50 0.46 0.40 0.36 0.32 0.28 0.26 0.25 0.23 0.19 0.17 0.17 0.17 0.17 0.17 0.19 0.19 0.19 0.19 0.21 0.21 0.23 0.23
0.72 0.72 0.70 0.70 0.70 0.70 0.70 0.68 0.68 0.70 0.70 0.70 0.70 0.72 0.72 0.72 0.72 0.72 0.72 0.72 0.70 0.70 0.68 0.66 0.66 0.66 0.66 0.68 0.68 0.68 0.70 0.70 0.70 0.70 0.70 0.70 0.70 0.70 0.68 0.66 0.62 0.58 0.54 0.50 0.44 0.40 0.36 0.32 0.28 0.26 0.25 0.23 0.21 0.19 0.19 0.17 0.17 0.17 0.17 0.17 0.19 0.19 0.19 0.19 0.21 0.21 0.23 0.23 0.23
0.72 0.72 0.72 0.72 0.70 0.70 0.70 0.70 0.70 0.70 0.70 0.70 0.70 0.70 0.70 0.70 0.70 0.70 0.70 0.70 0.68 0.68 0.68 0.66 0.66 0.68 0.68 0.68 0.68 0.68 0.70 0.70 0.70 0.70 0.70 0.68 0.68 0.68 0.64 0.60 0.54 0.48 0.42 0.36 0.32 0.28 0.26 0.25 0.23 0.21 0.21 0.19 0.19 0.19 0.17 0.17 0.17 0.17 0.17 0.19 0.19 0.19 0.19 0.21 0.21 0.23 0.23 0.23 0.25
0.74 0.74 0.74 0.72 0.72 0.72 0.72 0.70 0.70 0.70 0.70 0.70 0.70 0.70 0.70 0.70 0.70 0.68 0.68 0.68 0.68 0.66 0.66 0.66 0.68 0.68 0.68 0.70 0.70 0.68 0.68 0.68 0.68 0.68 0.68 0.68 0.64 0.60 0.56 0.50 0.46 0.38 0.32 0.28 0.26 0.25 0.23 0.21 0.21 0.19 0.19 0.19 0.19 0.19 0.19 0.19 0.19 0.19 0.19 0.19 0.19 0.19 0.21 0.21 0.23 0.23 0.23 0.25 0.25
Wind_Speed
32 32 32 32 32 31 31 31 31 31 31 31 31 31 31 31 31 31 31 31 31 31 31 31 31 31 31 31 32 32 32 32 32 32 32 32 32 32 32 32 32 32 32 31 31 31 30 30 29 29 29 29 29 28 28 28 27 27 27 27 27 27 27 26 26 26 27 26 26
31 31 31 31 31 31 31 31 31 31 31 31 31 30 30 30 30 30 30 30 30 31 31 31 31 31 31 31 31 31 31 31 31 31 31 31 31 31 31 31 30 30 30 30 30 29 29 29 28 28 28 28 28 28 28 27 27 27 27 27 27 27 27 26 26 26 26 26 26
31 31 31 31 31 31 30 30 30 30 30 30 30 30 30 30 30 30 30 30 30 30 30 30 30 30 30 30 30 30 30 30 30 30 30 30 30 30 30 29 29 29 29 28 28 28 28 28 28 28 28 28 28 27 27 27 27 27 27 27 27 27 27 27 27 26 26 25 25
31 31 31 31 31 31 30 30 30 30 30 30 30 30 30 30 30 30 30 30 30 30 30 30 30 30 30 30 30 30 30 30 30 29 29 29 29 29 29 28 28 28 28 28 27 27 27 27 28 28 28 28 27 27 27 27 27 27 27 27 27 27 27 27 27 27 26 25 25
31 31 31 31 31 31 31 31 31 30 30 30 30 30 30 30 30 30 30 30 30 30 30 30 30 30 30 29 29 29 29 29 29 29 29 29 28 28 28 28 28 27 27 27 27 27 27 27 28 28 27 27 27 27 27 27 27 27 27 27 27 27 27 27 27 27 26 26 26
32 32 31 31 31 31 31 31 31 31 31 31 30 30 30 30 30 30 30 30 30 30 30 30 30 30 29 29 29 29 29 29 29 29 28 28 28 28 28 27 27 27 27 27 27 27 27 27 27 27 27 27 27 27 27 28 28 28 28 27 27 27 27 26 26 26 26 26 26
32 32 32 32 31 31 31 31 31 31 31 31 31 30 30 30 30 30 30 30 30 30 30 30 30 29 29 29 29 29 29 28 28 28 28 28 28 28 27 27 27 27 27 27 27 27 27 27 27 27 28 28 28 28 28 28 28 28 28 27 27 27 27 26 26 26 26 27 27
32 32 32 32 32 31 31 31 31 31 31 31 31 31 31 31 31 30 30 30 30 30 30 30 29 29 29 29 29 28 28 28 28 28 28 28 28 27 27 27 27 27 27 27 27 27 27 28 28 28 28 28 28 28 28 28 27 27 27 27 27 27 27 26 26 26 26 27 27
32 32 32 32 32 31 31 31 31 31 31 31 31 31 31 31 31 31 31 30 30 30 30 29 29 29 29 29 28 28 28 28 28 28 28 27 27 27 27 27 27 27 27 27 27 27 27 27 28 28 28 28 28 28 27 27 27 27 27 27 27 26 26 25 25 25 26 26 26
32 32 32 32 32 32 31 31 31 31 31 31 31 31 31 31 31 31 30 30 30 30 29 29 29 29 28 28 28 28 28 28 28 27 27 27 27 27 27 27 27 27 27 27 27 27 27 27 27 28 28 28 27 27 27 26 26 26 26 26 26 25 25 25 25 25 25 25 25
32 32 32 32 32 32 31 31 31 31 31 31 31 31 31 31 30 30 30 30 29 29 29 29 28 28 28 28 28 28 28 28 28 27 27 27 27 27 27 27 27 27 27 27 27 27 27 27 27 27 27 27 27 26 26 26 26 26 26 26 26 25 25 25 25 25 25 26 25
32 32 32 32 32 32 31 31 31 31 31 31 31 31 30 30 30 30 30 29 29 29 29 28 28 28 28 28 28 27 27 27 27 27 27 27 27 27 27 27 27 27 28 28 28 28 28 28 27 27 27 27 27 26 26 26 26 26 26 26 26 26 25 25 25 26 26 26 25
32 32 32 32 32 31 31 31 31 31 31 31 31 31 30 30 30 30 29 29 29 29 28 28 28 28 28 27 27 27 27 27 27 27 27 27 27 27 27 28 28 28 28 28 28 28 28 28 27 27 27 27 27 26 26 26 26 26 26 26 26 26 26 25 26 26 26 26 26
31 31 31 31 31 31 31 31 31 31 31 31 31 31 30 30 30 30 29 29 29 29 28 28 28 28 28 28 28 28 28 28 28 28 28 28 28 28 28 28 28 28 28 28 28 28 27 27 27 27 27 26 26 26 26 26 26 26 26 26 26 26 26 26 26 26 26 26 26
31 31 31 31 31 31 31 31 31 31 31 31 31 31 31 30 30 30 29 29 29 29 28 28 28 28 28 28 28 28 28 28 28 28 28 28 28 28 28 28 28 28 28 28 28 28 27 27 27 27 26 26 26 26 26 26 26 26 26 26 26 26 26 26 26 26 26 25 25
30 30 30 30 30 30 30 31 31 31 31 31 31 31 31 30 30 30 29 29 29 29 29 28 28 28 28 28 28 28 28 28 28 28 28 28 28 28 28 28 28 28 28 28 28 27 27 27 27 26 26 26 26 26 26 26 26 26 26 26 26 26 26 26 25 25 25 25 24
29 29 29 29 30 30 30 30 31 31 31 31 31 31 31 31 30 30 30 30 29 29 29 29 29 29 28 28 28 28 28 28 28 28 28 28 28 28 28 28 28 28 28 28 28 27 27 27 27 26 26 26 26 26 26 26 26 26 26 26 25 25 25 25 24 24 24 24 23
28 28 28 29 29 29 30 30 30 31 31 31 31 31 31 31 31 30 30 30 30 29 29 29 29 29 29 29 29 29 29 29 29 28 28 28 28 28 28 28 28 28 28 28 27 27 27 26 26 26 26 26 26 26 26 26 25 25 25 25 24 24 24 24 23 23 23 23 23
27 28 28 28 28 29 29 30 30 30 30 31 31 31 31 31 31 31 31 30 30 30 30 30 30 30 29 29 29 29 29 29 29 29 29 28 28 28 28 28 28 28 28 27 27 27 26 26 26 26 25 25 25 25 25 25 24 24 23 23 23 23 22 22 22 22 22 22 21
27 27 27 27 28 28 29 29 29 30 30 30 30 31 31 31 31 31 31 31 31 31 30 30 30 30 30 30 30 30 30 30 29 29 29 29 28 28 28 28 28 27 27 27 26 26 26 25 25 25 25 24 24 24 23 23 23 22 22 21 21 21 21 21 21 21 21 20 20
27 27 27 27 27 28 28 28 29 29 29 30 30 30 31 31 31 31 31 31 31 31 31 31 31 31 31 30 30 30 30 30 30 29 29 29 28 28 28 28 27 27 26 26 25 25 25 24 24 24 24 23 23 22 22 21 21 21 20 20 20 20 20 19 19 19 19 19 19
27 27 27 27 27 27 28 28 28 28 29 29 29 30 30 30 31 31 31 31 31 31 31 31 31 31 31 31 30 30 30 30 30 29 29 28 28 28 27 27 26 26 25 25 24 24 24 23 23 23 22 22 21 21 20 20 20 19 19 19 19 19 19 19 19 18 18 18 18
27 27 27 27 28 28 28 28 28 28 28 29 29 29 29 30 30 30 30 30 30 30 31 31 31 31 31 31 30 30 30 29 29 29 28 28 27 27 27 26 25 25 24 24 23 23 22 22 22 21 21 20 20 19 19 19 19 18 18 18 18 18 18 18 18 18 18 18 17
27 27 28 28 28 28 28 28 28 28 28 28 29 29 29 29 29 29 30 30 30 30 30 30 30 30 30 30 29 29 29 28 28 28 27 27 27 26 25 25 24 24 23 23 22 22 21 21 20 20 19 19 19 19 18 18 18 18 18 18 18 18 17 17 17 17 17 17 17
27 27 28 28 28 28 28 28 28 28 28 28 28 28 28 28 28 29 29 29 29 29 29 29 29 29 29 28 28 28 27 27 27 26 26 26 25 25 24 23 23 22 22 21 21 20 20 20 19 19 19 18 18 18 18 18 17 17 17 17 17 17 17 17 17 16 16 16 16
27 27 27 27 28 28 28 28 28 28 28 28 28 28 28 28 28 28 28 28 28 28 28 27 27 27 27 27 27 26 26 26 26 25 25 24 24 23 23 22 22 21 20 20 19 19 19 18 18 18 18 18 17 17 17 17 17 17 17 17 17 16 16 16 16 15 15 15 15
27 27 27 27 27 27 27 27 27 27 27 27 27 27 27 27 27 27 27 27 26 26 26 26 26 26 26 25 25 25 25 25 24 24 23 23 22 22 21 21 20 20 19 19 18 18 18 18 17 17 17 17 17 17 17 16 16 16 16 16 16 16 15 15 15 14 14 14 14
27 27 27 27 27 27 27 27 27 26 26 27 27 27 27 27 27 26 26 26 25 25 25 25 24 24 24 24 24 23 23 23 23 22 22 21 21 20 20 19 19 18 18 18 17 17 17 17 17 17 16 16 16 16 16 16 15 15 15 15 15 14 14 14 14 14 14 13 13
27 27 27 27 27 27 27 26 26 26 26 26 26 26 26 26 26 26 25 25 25 24 24 24 23 23 23 22 22 22 22 21 21 21 20 20 19 19 18 18 18 17 17 17 17 17 17 16 16 16 16 16 16 15 15 15 15 14 14 14 14 14 13 13 13 13 13 13 13
27 27 27 27 27 26 26 26 26 26 25 26 26 26 25 25 25 25 25 24 24 24 23 23 22 22 22 21 21 21 20 20 20 19 19 19 18 18 18 17 17 17 17 16 16 16 16 16 16 16 16 15 15 15 14 14 14 13 13 13 13 13 13 12 12 12 12 12 12
27 27 27 27 27 26 26 26 26 25 25 25 25 25 25 24 24 24 24 24 23 23 23 22 22 21 21 21 20 20 20 19 19 19 18 18 18 17 17 17 17 17 16 16 16 16 16 16 16 15 15 15 14 14 14 13 13 13 12 12 12 12 12 12 12 11 11 12 12
27 27 27 27 26 26 26 26 25 25 25 25 24 24 24 24 24 23 23 23 23 22 22 21 21 21 20 20 20 19 19 19 18 18 18 17 17 17 17 17 16 16 16 16 16 16 16 15 15 15 14 14 13 13 13 12 12 12 12 11 11 11 11 11 11 11 11 11 11
27 27 27 27 26 26 26 25 25 25 24 24 24 24 23 23 23 23 23 22 22 22 21 21 20 20 20 19 19 19 18 18 18 18 17 17 17 17 16 16 16 16 16 16 16 15 15 14 14 13 13 12 12 12 12 12 11 11 11 11 11 11 10 11 11 11 11 11 11
27 27 27 27 26 26 26 25 25 25 24 24 23 23 23 22 22 22 22 22 21 21 21 20 20 20 19 19 19 18 18 18 17 17 17 17 16 16 16 16 16 16 16 15 15 14 14 13 13 12 12 12 11 11 11 11 11 10 10 10 10 10 10 11 11 11 11 11 11
26 26 26 26 26 26 26 25 25 24 24 23 23 22 22 22 22 21 21 21 21 20 20 20 19 19 19 18 18 18 18 18 17 17 17 17 16 16 16 16 16 15 15 14 14 13 13 12 12 11 11 11 11 11 10 10 10 10 10 10 10 10 10 11 11 11 11 12 11
26 26 26 26 26 26 26 25 25 24 24 23 22 22 21 21 21 21 21 20 20 20 19 19 19 18 18 18 18 18 18 17 17 17 17 16 16 16 15 15 15 14 14 13 13 12 12 12 11 11 11 11 10 10 10 10 10 10 10 10 10 10 10 11 11 11 11 12 12
25 26 26 26 26 26 25 25 24 24 23 23 22 21 21 21 20 20 20 20 20 19 19 18 18 18 17 17 17 17 17 17 17 16 16 16 15 15 14 14 14 13 13 13 12 12 12 11 11 11 10 10 10 10 10 10 10 10 10 10 10 10 11 11 11 11 11 12 12
25 25 25 25 25 25 25 24 24 23 23 22 22 21 21 20 20 20 20 20 19 19 18 18 18 17 17 17 17 17 17 16 16 16 15 15 15 14 14 13 13 12 12 12 12 12 11 11 11 10 10 10 10 10 10 10 10 10 10 10 10 11 11 11 11 11 12 12 12
24 24 24 24 24 24 24 24 24 23 23 22 21 21 21 20 20 20 19 19 19 19 18 18 18 17 17 17 17 17 16 16 16 15 15 14 14 13 13 12 12 12 12 12 11 11 11 11 10 10 10 10 10 10 10 10 10 10 10 10 10 11 11 11 11 12 12 12 12
23 23 23 23 24 24 23 23 23 23 22 22 21 21 20 20 20 19 19 19 19 18 18 18 18 17 17 17 17 16 16 16 15 15 14 14 13 13 12 12 12 12 12 11 11 11 11 10 10 10 10 10 10 10 10 10 10 10 10 10 11 11 11 11 11 12 12 12 12
22 22 22 22 23 23 23 22 22 22 22 21 21 21 20 20 19 19 19 19 18 18 18 18 18 17 17 17 16 16 16 15 15 14 14 14 13 13 12 12 12 12 11 11 11 11 11 10 10 10 10 10 10 10 10 10 10 10 10 10 11 11 11 11 11 12 12 12 13
Wind_Direction
253 254 255 256 256 257 258 258 259 259 259 260 260 260 260 260 260 261 261 261 261 262 262 262 263 263 264 265 265 266 267 268 269 269 270 271 271 272 272 272 272 272 272 273 273 273 273 273 274 274 275 275 275 276 276 276 276 276 276 276 277 277 278 278 277 277 278 278 278
253 254 255 256 256 257 257 258 258 259 259 259 259 259 260 260 260 260 261 261 261 261 262 262 262 263 264 265 265 266 267 268 268 269 270 270 271 271 272 272 272 272 272 272 272 272 272 272 273 273 274 274 275 275 275 276 276 276 276 277 278 278 278 278 277 277 278 278 278
253 253 254 255 255 256 256 257 257 258 258 258 259 259 259 259 260 260 260 261 261 261 262 262 262 263 264 264 265 266 267 267 268 269 269 269 270 270 271 271 271 271 272 272 271 271 271 272 272 272 273 273 274 274 275 276 276 277 277 277 278 278 278 277 277 278 278 278 277
252 253 253 254 254 255 255 256 256 257 257 258 258 258 259 259 260 260 260 260 261 261 261 262 262 263 263 264 265 265 266 267 267 268 268 268 269 269 270 270 270 271 271 271 271 271 271 271 271 272 272 273 273 274 275 276 277 277 277 277 278 278 278 278 278 279 278 277 275
251 252 253 253 254 254 255 256 256 256 257 257 258 258 258 259 259 259 260 260 260 261 261 262 262 263 263 264 264 265 266 266 267 267 267 268 268 268 269 269 269 270 270 270 270 270 270 271 271 271 272 273 273 274 275 276 276 276 276 277 278 278 279 279 279 279 277 275 273
251 251 252 253 253 254 255 255 255 256 256 257 257 257 258 258 259 259 259 260 260 260 261 261 262 262 263 263 264 265 265 266 266 266 266 267 267 268 268 268 269 269 269 269 270 270 270 270 271 271 271 272 273 274 275 275 276 276 276 277 278 278 278 277 277 275 274 272 272
250 251 252 253 253 254 255 255 255 256 256 257 257 257 258 258 259 259 259 259 260 260 261 261 262 262 263 263 264 264 265 265 265 265 266 266 267 267 267 268 268 268 269 269 269 270 270 270 270 271 271 272 273 273 274 275 276 277 277 278 277 277 277 276 275 273 271 271 272
251 251 252 253 253 254 255 255 255 256 256 256 257 257 258 258 258 259 259 260 260 260 261 261 262 262 262 263 264 264 264 265 265 265 265 266 266 267 267 268 268 268 269 269 269 269 270 270 270 271 271 272 273 274 275 275 276 277 277 277 277 276 276 275 274 273 272 272 273
251 252 253 253 254 254 255 255 255 256 256 257 257 257 258 258 258 259 259 260 260 261 261 262 262 262 262 263 263 264 264 264 264 265 265 266 266 267 267 267 268 268 269 269 269 269 270 270 271 272 272 273 274 275 275 276 276 276 275 275 276 276 275 275 274 273 273 272 273
252 253 253 254 254 255 255 255 256 256 256 257 257 257 258 258 259 259 259 260 260 261 261 261 262 262 262 263 263 263 264 264 264 265 265 265 266 267 267 268 268 269 269 269 269 270 270 271 272 273 274 274 275 275 275 275 275 274 274 275 275 275 275 275 274 273 273 273 273
253 254 254 254 254 254 255 255 255 256 256 256 257 257 258 258 259 259 259 260 260 260 261 261 261 262 262 262 263 263 264 264 264 265 265 265 266 267 267 268 269 269 269 270 270 270 271 272 272 273 274 275 275 275 275 274 274 274 274 274 274 274 275 275 274 273 272 272 272
254 254 254 254 254 254 254 254 255 255 256 256 257 257 257 258 258 259 259 259 259 260 260 260 261 261 262 262 262 263 263 264 264 265 265 266 266 267 267 268 269 269 270 270 271 271 272 272 273 273 274 275 275 275 275 274 274 273 273 273 273 273 273 273 272 272 271 271 271
254 254 254 254 254 254 254 254 254 255 255 256 256 256 257 257 258 258 258 258 259 259 259 260 260 260 261 261 262 262 263 263 264 265 265 266 267 267 268 268 269 270 270 271 271 272 272 273 273 273 274 274 274 274 274 273 273 273 272 272 271 271 271 271 271 271 271 271 271
254 254 254 254 254 253 254 254 254 254 255 255 255 256 256 257 257 257 258 258 258 258 258 259 260 260 261 261 262 262 263 264 264 265 266 266 267 267 268 268 269 270 270 271 271 272 273 273 273 273 273 273 273 273 273 272 272 272 271 271 270 270 271 271 271 271 271 271 272
253 253 253 253 253 253 254 254 254 254 254 254 255 255 255 256 256 256 257 257 257 258 258 259 259 260 261 261 262 263 264 264 265 265 266 267 267 268 268 268 269 269 270 271 271 272 272 273 273 273 273 273 272 272 272 271 271 271 271 271 271 271 271 271 271 271 271 271 272
253 253 253 253 253 253 254 254 254 254 254 254 254 255 255 255 256 256 256 256 257 258 258 259 259 260 261 262 263 263 264 265 265 266 266 267 267 268 268 268 269 269 269 270 270 271 271 272 272 272 273 272 272 272 272 271 271 271 271 271 271 271 271 271 271 271 271 271 271
253 253 253 253 253 254 254 254 254 254 254 254 254 254 255 255 255 256 256 256 257 258 258 259 259 260 261 262 263 263 264 265 265 266 266 266 267 267 268 268 268 268 269 269 270 270 271 271 272 272 272 272 272 272 272 272 272 271 271 271 271 271 270 270 270 270 270 270 271
254 254 254 254 254 254 254 255 255 255 254 254 254 255 255 255 255 256 256 257 257 258 258 259 259 260 261 262 262 263 264 264 265 265 266 266 266 267 267 267 268 268 268 269 270 270 270 271 271 272 272 272 272 272 272 272 271 271 271 270 270 270 270 270 270 270 270 270 271
256 256 256 256 256 256 256 256 255 255 255 255 255 255 255 255 256 256 257 257 257 258 258 259 259 260 260 261 262 262 263 263 264 264 265 265 265 266 266 267 267 268 268 269 269 270 270 270 271 271 272 272 272 272 271 271 270 270 270 269 269 269 269 269 269 270 270 270 271
257 257 257 258 257 257 257 257 257 257 257 257 257 256 256 256 256 256 257 257 257 257 258 258 259 259 260 260 261 262 262 262 263 263 264 264 264 265 266 266 267 268 268 269 269 270 270 270 271 271 271 271 271 270 270 269 269 268 268 268 268 268 268 269 269 269 270 270 271
257 258 259 259 259 259 259 259 258 258 258 258 258 258 258 257 257 257 257 257 257 257 258 258 258 259 259 260 260 261 261 262 262 262 262 263 264 264 265 266 267 268 268 269 269 269 269 270 270 270 270 270 269 269 268 268 267 267 267 267 267 268 268 268 269 269 270 271 272
257 259 260 260 260 260 260 260 260 260 260 260 260 259 259 258 258 257 257 257 257 257 257 258 258 259 259 260 260 260 261 261 261 262 262 263 264 265 266 266 267 268 268 268 268 268 269 269 269 269 269 268 267 267 266 266 266 266 266 266 267 267 268 268 269 270 270 271 272
258 259 260 261 261 262 262 262 261 261 261 260 260 260 259 259 258 258 257 257 257 257 257 258 258 259 260 260 260 261 261 261 262 262 263 264 264 265 266 266 267 267 267 267 267 267 267 267 267 267 267 266 265 265 265 265 265 265 265 266 266 267 268 269 269 270 271 271 272
258 259 261 261 262 262 262 262 262 261 261 260 260 260 259 259 258 258 257 257 257 257 258 258 259 260 260 261 261 261 261 261 262 262 263 264 264 265 265 266 266 265 265 266 265 265 265 266 265 265 264 264 264 264 264 264 264 264 264 265 266 266 267 268 269 270 271 271 272
258 259 261 261 262 262 262 262 262 261 261 260 260 259 259 258 258 257 257 257 258 258 259 259 260 260 261 261 261 261 261 261 261 262 262 263 263 264 264 264 264 265 264 264 264 263 264 264 263 263 263 262 262 263 263 263 264 264 264 265 265 266 266 267 268 268 269 270 272
258 259 260 261 261 261 261 261 261 260 260 260 259 259 258 258 257 257 257 258 258 259 259 259 260 260 260 260 260 260 260 260 260 261 261 262 262 263 263 263 263 263 263 263 262 262 262 262 261 261 261 261 261 262 263 263 263 264 264 264 264 265 265 266 267 267 268 269 270
258 258 259 260 260 260 260 260 259 259 259 259 259 258 258 257 257 257 257 258 258 258 259 259 259 259 259 259 259 259 259 259 259 260 260 260 260 261 261 262 262 262 262 261 261 261 260 260 260 260 260 261 261 262 262 263 263 263 263 264 264 264 264 264 265 266 266 268 269
257 257 258 259 259 259 258 258 258 258 258 258 258 257 257 256 256 256 256 257 257 258 258 258 258 258 258 258 257 257 257 258 258 258 258 258 258 259 259 260 260 260 260 259 259 259 259 259 259 259 260 260 261 261 261 262 262 262 262 262 262 262 262 262 263 264 265 267 268
256 256 257 257 257 257 257 257 257 257 257 257 257 256 256 255 255 255 255 255 256 256 256 256 256 256 256 256 255 255 255 256 256 256 256 256 256 257 257 257 258 258 258 258 258 258 258 258 258 259 259 260 260 261 260 260 260 260 260 261 261 261 261 261 262 263 264 266 267
255 255 256 255 256 256 256 256 257 257 256 256 255 255 254 254 254 254 254 254 253 253 253 253 253 253 253 253 253 254 254 254 254 254 254 254 254 255 255 255 256 257 257 257 257 257 257 257 258 258 258 259 259 258 258 257 257 258 258 258 259 259 259 260 261 263 264 265 266
255 255 254 254 254 254 255 256 256 256 256 255 254 254 253 253 252 252 252 252 252 252 251 251 251 251 251 251 252 252 252 252 252 252 252 252 252 253 253 254 255 255 256 256 256 256 256 256 257 257 257 257 256 256 255 254 254 255 255 256 256 257 258 259 261 262 264 265 266
254 254 254 253 253 253 254 255 256 256 256 255 254 253 252 251 251 251 251 250 250 250 250 250 249 250 250 250 250 250 250 250 250 250 250 250 251 251 252 253 254 254 254 254 254 255 255 255 255 254 254 254 253 252 252 251 251 252 253 254 255 256 258 259 261 262 264 266 267
254 254 253 252 252 252 253 254 255 256 255 254 253 252 251 250 250 249 249 249 248 248 248 248 248 248 248 249 249 249 249 248 248 248 248 249 250 250 251 252 253 253 253 252 252 252 252 252 251 250 249 249 249 249 249 249 250 251 252 254 255 257 258 260 262 263 265 267 268
254 253 253 252 252 252 252 254 255 255 255 254 253 251 250 249 248 248 247 247 247 247 247 247 247 247 247 247 247 247 247 247 247 247 248 248 249 249 250 251 252 251 250 250 249 249 248 247 245 244 243 243 244 245 246 247 249 250 252 253 256 258 260 262 264 265 267 268 269
254 253 252 251 251 251 252 253 254 254 254 253 252 250 249 248 247 246 246 245 245 245 245 245 246 246 245 245 245 245 245 245 245 246 246 247 247 248 249 249 249 248 247 246 245 244 242 240 239 238 238 240 242 243 244 246 248 249 251 253 255 258 261 263 266 268 269 270 271
254 253 252 251 251 251 251 252 252 253 252 252 250 249 248 246 246 245 244 243 243 243 243 243 244 244 243 243 243 243 243 243 243 244 244 245 245 245 245 245 244 243 242 240 239 237 236 234 234 234 235 238 240 242 244 246 248 249 251 253 256 259 262 264 266 268 269 270 271
254 253 252 251 250 250 251 251 251 251 250 249 248 247 246 245 244 243 242 241 241 241 241 241 241 241 241 241 241 242 242 242 241 241 242 242 241 241 240 240 239 238 236 234 232 231 230 230 230 232 234 237 239 241 244 246 249 251 253 256 258 261 263 265 266 268 269 270 271
254 252 251 250 250 250 250 250 249 249 248 247 246 244 244 243 242 242 241 240 239 239 239 239 239 239 239 239 239 239 240 240 239 238 238 238 237 236 235 234 233 232 230 228 227 227 227 227 229 231 234 237 239 242 245 248 251 253 256 258 260 262 263 265 266 268 269 270 272
253 252 250 249 249 248 248 248 247 246 245 244 243 242 241 241 240 240 239 239 238 237 237 237 236 236 236 236 236 237 237 237 236 235 234 233 232 231 230 228 227 226 225 224 223 224 225 226 228 231 234 237 240 243 247 250 253 255 257 259 261 262 264 265 267 268 270 271 273
253 251 250 248 247 246 246 245 244 244 242 241 240 239 238 238 238 237 237 237 236 236 235 235 234 234 234 234 234 234 233 233 233 231 230 228 227 225 224 223 222 222 221 221 221 222 224 226 229 232 235 239 242 245 248 251 254 256 258 260 262 263 265 266 268 270 272 273 275
252 250 249 247 246 245 244 242 241 240 239 238 237 236 236 235 235 234 234 234 233 233 233 232 232 232 232 231 231 230 229 228 227 226 225 224 222 220 219 218 218 218 219 220 221 222 224 227 229 233 236 240 243 246 250 252 254 256 258 260 263 265 267 268 270 272 274 275 276